Location: Battersea Observatory
(44.4318°N, 76.3841°W)
Time: 06:02:23
(UTC-05:00)

Envisat - Visible Passes

Search period start: 06 December 2021 00:00
Search period end: 16 December 2021 00:00
Orbit: 764 x 766 km, 98.2° (Epoch: 05 December)

Date Brightness Start Highest point End Pass type
(mag) Time Alt. Az. Time Alt. Az. Time Alt. Az.
06 Dec 4.8 04:21:08 10° NE 04:25:34 30° E 04:29:58 10° SSE visible
06 Dec 3.5 06:00:00 10° N 06:04:37 36° WNW 06:09:13 10° SW visible
06 Dec 5.6 17:17:07 10° SW 17:21:06 23° W 17:25:07 10° NW visible
07 Dec 5.9 03:45:46 10° ENE 03:48:19 14° E 03:50:52 10° ESE visible
07 Dec 2.8 05:22:49 10° N 05:27:55 76° WNW 05:32:58 10° SSW visible
08 Dec 3.8 04:46:04 10° NNE 04:51:01 50° E 04:55:56 10° S visible
08 Dec 4.1 06:25:49 10° NNW 06:29:41 22° WNW 06:33:33 10° WSW visible
08 Dec 6.1 17:44:16 10° WSW 17:46:42 13° W 17:49:08 10° WNW visible
09 Dec 5.2 04:09:51 10° NE 04:13:55 24° E 04:17:57 10° SE visible
09 Dec 3.2 05:48:18 10° N 05:53:07 45° WNW 05:57:55 10° SW visible
09 Dec 5.2 17:05:04 10° SSW 17:09:27 29° W 17:13:51 10° NW visible
10 Dec 6.1 03:35:37 10° ENE 03:36:37 10° E 03:37:36 10° E visible
10 Dec 2.9 05:11:15 10° NNE 05:16:21 86° E 05:21:27 10° SSW visible
10 Dec 4.6 06:52:07 10° NNW 06:54:40 14° WNW 06:57:12 10° W visible
11 Dec 4.2 04:34:37 10° NNE 04:39:25 40° E 04:44:09 10° SSE visible
11 Dec 3.8 06:13:59 10° N 06:18:14 27° WNW 06:22:28 10° WSW visible
11 Dec 5.9 17:31:43 10° SW 17:35:00 17° W 17:38:17 10° NW visible
12 Dec 5.5 03:58:41 10° NE 04:02:15 19° E 04:05:47 10° SE visible
12 Dec 3.0 05:36:38 10° N 05:41:37 56° WNW 05:46:34 10° SSW visible
12 Dec 4.8 16:53:10 10° SSW 16:57:48 36° W 17:02:30 10° NNW visible
13 Dec 3.2 04:59:42 10° NNE 05:04:48 69° ESE 05:09:51 10° S visible
13 Dec 4.3 06:40:01 10° NNW 06:43:15 17° WNW 06:46:29 10° W visible
14 Dec 4.6 04:23:15 10° NNE 04:27:46 32° E 04:32:16 10° SSE visible
14 Dec 3.6 06:02:13 10° N 06:06:46 34° WNW 06:11:18 10° SW visible
14 Dec 5.7 17:19:28 10° SW 17:23:19 22° W 17:27:11 10° NW visible
15 Dec 5.7 03:47:43 10° NE 03:50:33 15° E 03:53:22 10° ESE visible
15 Dec 2.8 05:25:01 10° N 05:30:05 71° WNW 05:35:08 10° SSW visible
